Temperature
10 10 10 10 10 10 10 10 10 10 10 10 10 10 10 10 10 10 11 11 11 11 11 11 11 11 11 11 11 11 11 11 11 11 11 11 11 11 11 11 11 11 11
9 9 9 9 9 9 9 9 9 9 9 9 10 10 10 10 10 10 10 10 10 10 11 10 10 10 10 10 10 11 11 11 11 11 11 11 11 11 11 11 11 11 11
8 9 9 9 9 9 9 9 9 9 9 9 9 9 9 9 9 10 10 10 10 10 10 10 10 10 10 10 10 10 10 10 11 11 11 11 11 11 11 11 11 11 11
8 8 8 8 8 8 8 8 8 8 8 8 9 9 9 9 9 9 9 9 9 9 10 10 10 10 10 10 10 10 10 10 10 10 10 10 11 11 11 11 11 11 11
7 7 7 8 8 8 8 8 8 8 8 8 8 8 8 9 9 9 9 9 9 9 9 9 9 9 9 9 9 10 10 10 10 10 10 10 10 10 11 11 11 11 11
7 7 7 7 7 7 7 7 7 7 7 7 8 8 8 8 8 8 8 8 8 9 9 9 9 9 9 9 9 9 9 9 9 10 10 10 10 10 10 10 10 10 10
6 6 6 7 7 7 7 7 7 7 7 7 7 7 8 8 8 8 8 8 8 8 8 8 8 8 9 9 9 9 9 9 9 9 9 9 10 10 10 10 10 10 10
6 6 6 6 6 6 6 6 6 6 6 6 6 6 6 7 7 7 7 7 7 7 8 8 8 8 8 8 9 9 9 9 9 9 9 9 9 9 9 9 10 10 10
5 5 5 5 5 6 6 6 6 6 6 6 5 5 5 6 6 6 6 7 7 7 7 7 7 7 8 8 8 8 8 8 8 8 9 9 9 9 9 9 9 9 9
4 5 5 5 5 5 5 5 5 5 5 5 5 5 5 5 5 5 5 6 6 6 7 7 7 7 7 7 7 8 8 8 8 8 8 8 9 9 9 9 9 9 9
4 4 4 4 4 4 4 4 4 4 4 4 4 4 4 4 5 4 5 5 5 6 6 6 6 6 6 7 7 7 7 7 7 7 8 8 8 8 8 8 9 9 9
3 3 3 3 4 4 4 4 4 4 4 4 4 3 4 4 4 4 4 5 5 5 5 5 6 6 6 6 6 6 6 7 7 7 7 7 7 8 8 8 8 8 8
3 3 3 3 3 3 3 3 3 3 3 3 3 3 3 3 3 3 3 4 4 4 5 5 5 5 5 6 6 6 6 6 6 6 6 7 7 7 7 7 8 8 8
2 2 2 2 2 2 2 2 2 2 2 2 2 2 2 2 2 2 3 3 3 3 4 4 4 5 5 5 5 5 5 5 5 6 6 6 6 7 7 7 7 7 7
1 1 1 2 2 2 2 2 2 2 2 2 2 2 2 2 2 2 2 2 2 2 3 3 4 4 4 4 4 4 4 5 5 5 5 6 6 6 6 6 6 7 7
1 1 1 1 1 1 1 1 1 1 1 1 1 1 1 1 2 2 2 1 2 2 2 3 3 3 3 4 4 4 4 4 4 5 5 5 5 6 6 6 6 6 6
0 0 0 0 0 0 0 0 0 0 0 1 0 0 1 1 1 1 1 1 1 1 1 2 2 3 3 3 3 3 3 4 4 4 4 5 5 5 5 5 5 6 6
-1 -0 -0 -0 -1 -1 -0 -0 -0 -0 -0 -0 -0 -0 -0 -0 0 0 0 0 0 1 1 1 2 2 2 3 3 3 3 3 3 4 4 4 4 4 5 5 5 5 5
-1 -1 -1 -1 -1 -1 -1 -1 -1 -1 -1 -1 -1 -1 -1 -1 -1 -0 -0 -0 -0 -0 0 0 1 1 2 2 2 2 2 2 3 3 3 3 4 4 4 4 4 5 5
-2 -2 -2 -2 -2 -2 -1 -1 -1 -1 -1 -1 -1 -1 -1 -1 -1 -1 -1 -1 -1 -1 -1 -0 0 1 1 1 1 1 2 2 2 2 2 3 3 3 3 4 4 4 4
-3 -3 -3 -2 -2 -2 -2 -2 -2 -2 -2 -2 -1 -1 -1 -2 -1 -1 -2 -1 -1 -1 -1 -1 -1 -0 0 1 1 1 1 1 1 2 2 2 2 2 3 3 3 4 4
-3 -3 -3 -3 -3 -3 -3 -3 -3 -3 -2 -2 -2 -2 -2 -2 -2 -2 -2 -2 -2 -2 -2 -1 -1 -1 -1 -0 -0 -0 0 0 0 1 1 1 1 2 2 2 3 3 3
-4 -4 -4 -4 -4 -3 -3 -3 -3 -3 -3 -3 -3 -3 -3 -3 -3 -3 -2 -2 -2 -2 -2 -2 -2 -2 -2 -1 -1 -1 -1 -1 -0 -0 -0 0 1 1 1 2 2 2 2
-5 -5 -4 -4 -4 -4 -4 -4 -4 -4 -4 -4 -4 -3 -3 -3 -3 -3 -3 -3 -3 -3 -3 -3 -2 -2 -2 -2 -2 -1 -1 -1 -1 -1 -1 -1 -0 0 1 1 1 1 2
-5 -5 -5 -5 -5 -5 -4 -5 -5 -5 -5 -4 -4 -4 -4 -4 -4 -4 -4 -4 -4 -3 -3 -3 -3 -3 -3 -2 -2 -2 -2 -2 -2 -2 -2 -2 -1 -1 -0 0 0 1 1
-6 -6 -6 -6 -6 -5 -5 -5 -5 -5 -5 -5 -5 -5 -5 -4 -4 -4 -4 -4 -4 -4 -4 -4 -4 -3 -3 -3 -3 -3 -3 -3 -3 -3 -2 -2 -2 -2 -1 -1 -0 -0 0
Wind_Speed
1 1 1 2 2 2 2 2 2 2 3 2 2 2 2 2 2 2 1 1 1 2 1 2 2 3 3 3 3 3 3 4 5 5 5 5 5 5 5 5 5 5 5
2 1 1 1 1 1 1 1 1 1 1 1 1 1 1 1 2 1 1 0 0 0 0 2 2 2 2 3 3 3 3 3 4 5 4 4 5 4 4 4 4 3 4
3 2 1 0 0 0 1 1 1 1 1 1 1 1 1 1 2 2 2 2 1 1 1 1 2 2 1 1 3 3 3 3 4 4 4 5 5 5 4 4 3 3 3
3 3 1 1 1 1 1 1 0 0 1 1 1 1 1 2 3 3 3 2 2 2 2 2 2 2 2 2 3 4 4 4 4 5 5 5 5 5 4 3 4 4 3
4 3 2 2 2 1 0 1 1 1 1 1 2 2 1 2 3 3 3 3 3 3 2 2 2 2 2 2 2 3 4 5 5 6 6 5 5 5 5 4 4 5 5
3 3 2 2 2 1 1 1 1 1 1 1 2 2 2 3 2 2 3 3 4 4 3 3 2 2 2 3 3 3 5 6 6 6 7 7 6 6 6 6 5 6 6
2 3 2 2 2 2 3 2 1 1 1 1 0 1 2 2 2 2 2 2 2 4 3 3 3 2 3 4 4 5 6 7 7 7 8 8 7 7 7 7 7 7 7
3 2 3 3 3 2 2 2 1 1 1 0 1 0 1 2 2 2 2 2 2 2 2 3 3 3 4 4 5 6 6 7 8 9 9 10 9 9 8 8 8 8 7
4 3 3 3 3 3 4 3 3 2 2 1 1 1 1 3 2 2 3 2 2 1 2 3 4 5 5 5 5 7 7 8 9 10 10 11 11 10 10 9 9 9 9
4 4 3 3 3 3 4 4 3 3 3 3 2 2 2 2 2 2 2 2 3 3 3 3 5 6 7 7 7 8 9 9 9 10 10 11 11 11 10 11 9 10 10
4 4 4 3 3 3 4 4 3 3 3 3 3 2 2 2 2 3 4 3 3 3 4 4 5 5 7 7 8 9 10 10 10 10 11 11 12 12 12 11 11 10 11
3 4 4 4 4 4 4 4 4 4 4 4 3 3 3 2 2 2 3 4 5 4 4 4 4 5 7 7 8 9 10 11 11 11 11 11 11 11 12 11 11 12 11
3 4 4 4 4 5 5 4 4 5 5 5 5 4 4 4 3 3 3 4 5 4 3 4 4 6 7 7 8 10 11 12 12 12 12 12 11 11 11 11 11 11 11
4 5 5 5 5 6 6 5 4 5 5 5 6 6 5 5 4 4 4 3 4 5 4 5 3 5 6 7 10 11 11 13 13 13 13 14 13 12 12 13 12 13 12
5 5 5 5 5 6 5 5 5 5 5 6 6 6 6 5 5 5 4 4 5 6 8 5 4 4 6 8 10 10 11 12 14 14 14 14 14 13 14 14 14 13 13
6 5 5 5 5 6 6 5 5 5 5 6 5 6 7 6 5 5 5 5 5 6 8 6 5 4 5 7 10 10 11 13 14 14 15 15 15 15 15 15 15 15 15
6 6 5 5 5 6 6 5 6 6 7 7 7 7 8 7 6 6 5 5 6 6 9 8 5 4 5 6 7 9 11 11 11 14 15 16 16 16 15 14 15 15 16
6 6 5 5 6 6 6 6 7 7 7 8 7 7 8 7 7 6 6 7 7 7 8 10 7 5 6 6 6 6 7 9 10 13 15 16 16 15 15 15 15 15 15
6 6 5 6 6 7 7 7 7 8 8 8 8 8 8 7 8 6 6 7 7 7 7 8 8 6 5 5 5 5 6 6 8 11 13 14 15 15 15 14 14 14 15
6 6 6 6 6 6 7 7 7 8 8 8 8 8 8 8 8 8 7 7 7 7 7 7 8 6 5 5 4 5 6 5 6 7 9 11 12 13 13 13 14 14 14
7 6 6 6 6 6 7 7 7 8 8 8 8 8 8 9 11 9 8 7 7 7 6 7 7 6 6 5 5 5 7 6 5 5 5 6 6 7 9 12 13 13 14
6 6 7 7 7 7 9 11 9 7 8 8 8 8 8 9 11 12 13 12 10 9 8 8 8 8 7 6 5 6 6 6 6 3 4 6 6 6 7 7 10 11 12
6 7 7 7 7 8 11 12 12 8 7 7 7 7 7 8 10 8 10 12 12 13 13 10 10 9 8 7 6 7 7 8 8 5 4 7 5 7 6 7 10 11 11
6 6 7 7 7 8 11 11 11 8 7 7 7 8 8 8 8 8 8 9 9 10 11 10 9 9 9 8 8 9 9 8 6 4 4 6 5 6 6 6 8 10 11
7 6 6 6 7 8 10 10 10 6 6 7 7 7 8 8 11 12 9 9 9 9 10 13 13 12 13 14 11 7 7 7 7 5 4 4 5 5 5 5 6 9 10
7 7 7 6 6 7 9 10 10 5 6 6 6 7 10 10 11 12 9 9 9 8 7 7 8 10 10 10 12 9 8 8 6 5 4 4 4 3 4 3 4 5 7
Wind_Direction
110 87 65 58 35 26 27 25 33 45 41 47 64 82 82 107 111 97 73 37 39 57 104 127 143 146 163 161 155 141 143 144 147 144 136 130 122 122 124 121 110 115 125
146 141 116 70 36 17 2 20 35 30 23 47 28 47 131 146 157 154 166 224 204 16 219 167 149 158 173 178 176 174 178 172 167 160 158 156 147 136 144 137 134 126 140
176 166 156 160 287 317 5 20 43 35 17 3 322 295 224 211 200 200 198 193 204 244 257 219 194 177 182 200 202 200 201 201 188 179 179 181 176 166 155 166 156 148 144
189 180 183 221 228 173 62 2 291 306 304 316 293 271 270 242 226 218 200 199 202 230 253 241 239 226 230 248 238 233 223 220 212 201 196 188 184 184 179 182 190 181 176
198 192 200 218 211 167 322 243 257 243 256 293 287 275 264 250 230 219 220 215 206 210 215 213 220 232 241 257 260 256 238 229 229 218 205 200 198 202 198 199 202 197 200
219 205 204 210 194 179 215 229 220 252 234 248 275 286 272 255 229 212 222 225 221 212 204 200 206 225 235 252 259 264 257 242 236 230 219 217 219 216 214 210 212 212 212
237 219 212 205 192 197 210 219 215 217 280 262 50 322 304 266 233 219 218 219 230 227 212 208 209 230 242 252 259 266 269 258 246 240 230 226 227 224 223 219 220 222 223
242 239 206 209 204 202 211 217 177 194 247 272 165 145 307 290 271 254 236 219 225 228 223 233 234 236 246 252 260 265 270 268 256 248 236 230 230 230 229 229 224 227 232
251 247 230 208 202 198 210 221 196 183 211 255 206 183 191 239 281 261 237 230 226 230 235 253 252 250 252 250 258 262 265 271 266 255 247 236 231 234 233 235 234 230 232
260 254 240 219 202 208 213 219 208 199 190 222 244 245 236 216 228 267 259 250 248 244 244 257 258 254 248 247 254 260 262 265 271 264 255 246 236 234 236 237 240 238 235
266 262 245 229 217 214 216 211 211 206 202 215 227 240 254 268 242 237 259 261 266 252 244 249 250 250 248 247 252 258 259 261 268 273 264 251 249 241 239 242 239 242 238
280 274 262 241 234 225 218 216 213 213 215 217 229 229 227 223 234 237 251 258 261 258 253 247 245 247 251 252 255 260 260 264 267 271 269 261 256 253 245 243 242 243 245
281 276 273 258 247 240 229 222 219 224 222 221 225 234 237 237 234 244 253 266 269 271 256 247 240 246 251 253 257 262 260 262 266 268 269 264 260 258 256 247 245 246 248
269 270 267 262 257 247 242 227 227 229 229 228 234 235 242 244 238 238 239 253 274 269 256 251 246 239 251 257 259 257 259 260 262 262 266 266 262 260 262 253 250 247 248
272 267 267 268 266 257 250 233 230 233 232 232 236 237 242 245 239 241 241 236 241 262 259 248 239 237 254 259 259 258 258 259 259 258 262 265 264 258 258 256 248 247 246
270 269 270 268 268 262 253 242 239 236 236 241 239 240 244 248 244 239 239 242 241 247 263 254 242 250 258 264 262 259 258 261 259 260 262 263 264 259 254 254 247 244 243
274 267 267 267 265 263 252 244 243 236 237 244 245 244 247 247 248 244 240 242 243 245 260 271 257 254 242 252 266 260 260 258 258 260 261 264 263 259 254 252 250 248 244
273 269 267 265 264 262 252 242 244 243 238 244 245 246 250 250 250 248 242 244 247 246 252 268 272 257 250 249 251 254 262 260 260 260 260 261 262 260 255 252 254 250 245
275 273 267 263 262 260 255 248 243 242 239 242 242 241 246 246 250 252 250 250 251 252 250 259 269 264 255 251 253 263 260 262 267 265 263 262 263 261 257 253 252 249 243
275 272 269 264 263 265 261 254 247 245 242 242 239 239 242 241 244 248 252 251 252 252 252 258 265 265 254 246 240 251 262 256 264 273 267 263 265 262 258 256 254 251 242
282 276 273 271 267 264 263 256 248 248 248 245 243 242 243 245 248 248 251 247 246 249 253 258 264 271 257 246 244 249 260 266 264 261 263 260 261 261 259 259 255 249 241
287 281 273 269 268 268 273 273 265 252 247 245 248 247 247 248 254 256 257 257 253 249 249 253 258 261 263 250 247 254 257 264 266 244 251 265 259 257 256 251 255 251 244
297 291 280 272 269 273 275 274 272 263 251 246 245 250 256 257 258 252 260 264 262 261 256 252 254 254 259 254 246 248 248 252 259 255 259 266 261 261 265 258 257 252 250
296 291 288 283 276 278 281 279 278 270 259 252 247 244 247 252 255 254 252 255 254 256 256 252 250 253 257 257 246 249 251 259 270 252 239 260 262 262 269 263 257 249 248
299 293 292 288 283 287 288 283 279 268 260 255 251 248 248 248 258 256 253 254 257 258 263 260 260 262 263 264 263 257 247 248 261 256 228 245 259 272 267 257 256 250 249
300 297 298 294 288 286 289 286 280 265 263 262 256 253 256 256 261 256 246 247 253 258 260 266 268 270 269 266 262 249 239 241 253 258 225 226 249 269 275 257 249 255 254
Height
1532 1532 1533 1533 1534 1534 1535 1535 1536 1536 1536 1537 1537 1537 1538 1538 1538 1539 1539 1539 1539 1540 1540 1540 1541 1541 1542 1542 1543 1543 1544 1544 1544 1545 1545 1546 1546 1546 1546 1547 1547 1547 1547
1529 1530 1531 1531 1532 1532 1533 1533 1534 1534 1535 1535 1535 1535 1536 1536 1536 1537 1537 1537 1538 1538 1538 1539 1539 1539 1540 1541 1541 1542 1542 1543 1543 1544 1544 1544 1545 1545 1545 1546 1546 1547 1547
1527 1527 1528 1529 1529 1530 1531 1531 1532 1532 1533 1533 1533 1533 1534 1534 1534 1535 1535 1535 1536 1536 1537 1537 1537 1538 1538 1539 1540 1540 1541 1541 1542 1542 1543 1543 1544 1544 1544 1545 1545 1546 1546
1524 1525 1525 1526 1527 1527 1528 1529 1529 1529 1530 1530 1530 1530 1531 1531 1532 1532 1533 1533 1534 1534 1534 1535 1535 1536 1536 1537 1538 1538 1539 1539 1540 1541 1541 1541 1542 1542 1543 1543 1544 1544 1545
1521 1521 1522 1523 1524 1524 1525 1526 1526 1527 1527 1527 1527 1527 1528 1528 1529 1529 1530 1530 1531 1532 1532 1532 1533 1533 1534 1534 1535 1536 1537 1537 1538 1539 1539 1540 1540 1540 1541 1542 1542 1543 1543
1517 1518 1518 1519 1520 1521 1522 1522 1523 1523 1524 1524 1524 1525 1525 1525 1525 1526 1527 1527 1528 1529 1529 1530 1530 1531 1531 1532 1532 1533 1534 1535 1536 1536 1537 1537 1538 1538 1539 1539 1540 1541 1541
1513 1514 1514 1515 1516 1517 1518 1519 1519 1520 1520 1521 1521 1521 1521 1522 1522 1522 1523 1524 1525 1526 1526 1527 1527 1528 1528 1529 1530 1530 1531 1532 1533 1533 1534 1534 1535 1536 1536 1537 1537 1538 1539
1509 1510 1510 1510 1511 1512 1514 1515 1515 1516 1517 1518 1518 1518 1518 1519 1518 1519 1519 1520 1521 1522 1523 1523 1524 1524 1525 1525 1526 1527 1527 1528 1529 1530 1531 1531 1532 1533 1533 1534 1534 1535 1535
1505 1506 1505 1506 1507 1508 1509 1510 1511 1512 1512 1514 1515 1516 1516 1514 1514 1514 1515 1516 1517 1518 1519 1519 1520 1521 1521 1522 1522 1523 1524 1524 1525 1526 1527 1528 1528 1529 1530 1530 1531 1531 1532
1501 1501 1501 1501 1502 1503 1504 1506 1506 1507 1509 1509 1511 1511 1513 1512 1512 1510 1511 1511 1513 1513 1514 1515 1516 1516 1517 1518 1518 1519 1520 1520 1521 1522 1523 1523 1524 1525 1526 1527 1527 1528 1528
1496 1496 1496 1496 1498 1499 1500 1501 1502 1503 1504 1505 1506 1507 1507 1508 1508 1507 1505 1506 1508 1508 1509 1510 1511 1512 1512 1513 1514 1514 1515 1516 1516 1517 1518 1519 1520 1520 1521 1522 1523 1523 1524
1491 1491 1491 1492 1493 1494 1495 1496 1497 1498 1499 1500 1501 1502 1503 1503 1503 1503 1502 1501 1502 1502 1504 1505 1505 1506 1507 1508 1509 1509 1510 1511 1511 1512 1513 1514 1515 1515 1516 1517 1518 1518 1519
1487 1487 1487 1488 1488 1488 1489 1491 1492 1493 1494 1495 1496 1497 1498 1499 1499 1499 1499 1498 1498 1497 1498 1499 1500 1501 1502 1502 1503 1504 1505 1505 1506 1507 1508 1508 1509 1509 1510 1511 1512 1513 1514
1482 1483 1483 1483 1483 1483 1484 1485 1486 1487 1488 1489 1490 1491 1492 1493 1494 1495 1495 1495 1493 1492 1492 1493 1494 1495 1496 1496 1497 1498 1499 1499 1500 1501 1502 1502 1503 1504 1505 1505 1506 1507 1508
1478 1478 1477 1478 1478 1478 1479 1479 1480 1481 1482 1483 1484 1485 1486 1487 1488 1489 1490 1491 1492 1488 1486 1487 1488 1489 1490 1491 1491 1492 1492 1493 1494 1495 1496 1496 1497 1497 1498 1499 1500 1501 1502
1475 1474 1473 1473 1473 1473 1474 1474 1474 1475 1476 1477 1478 1479 1480 1480 1482 1483 1484 1484 1485 1485 1482 1480 1482 1483 1484 1485 1485 1486 1486 1487 1487 1488 1489 1490 1490 1491 1492 1493 1494 1495 1496
1469 1468 1468 1468 1467 1468 1468 1468 1468 1470 1470 1471 1472 1472 1473 1474 1475 1476 1477 1478 1478 1479 1477 1474 1477 1477 1478 1478 1479 1479 1479 1480 1480 1481 1482 1483 1484 1484 1485 1486 1487 1488 1489
1464 1463 1463 1463 1463 1463 1462 1462 1462 1464 1464 1464 1465 1466 1467 1468 1468 1469 1470 1470 1471 1472 1472 1469 1469 1471 1471 1472 1472 1472 1472 1473 1473 1474 1475 1476 1477 1477 1478 1478 1479 1480 1481
1459 1458 1458 1457 1457 1457 1456 1456 1457 1457 1457 1457 1459 1459 1460 1461 1461 1462 1463 1463 1464 1465 1465 1464 1462 1464 1464 1465 1465 1465 1466 1466 1466 1467 1468 1469 1469 1470 1470 1471 1472 1473 1474
1453 1452 1451 1450 1450 1450 1450 1450 1450 1450 1450 1451 1452 1452 1453 1454 1455 1456 1456 1456 1457 1458 1458 1457 1456 1456 1457 1458 1458 1458 1458 1458 1459 1460 1460 1461 1462 1462 1463 1464 1464 1465 1466
1447 1446 1445 1444 1443 1443 1443 1443 1443 1443 1443 1443 1444 1445 1446 1447 1448 1449 1449 1450 1450 1451 1451 1450 1450 1449 1449 1450 1451 1451 1451 1451 1451 1452 1452 1453 1454 1454 1455 1456 1457 1457 1459
1441 1440 1438 1437 1436 1436 1436 1436 1436 1436 1436 1436 1436 1437 1438 1439 1440 1441 1442 1442 1443 1443 1443 1443 1443 1442 1442 1444 1444 1445 1445 1445 1443 1445 1445 1445 1446 1446 1447 1448 1448 1450 1451
1435 1433 1431 1430 1429 1429 1429 1429 1429 1430 1429 1429 1429 1430 1431 1431 1433 1433 1433 1434 1435 1435 1436 1437 1435 1434 1436 1437 1438 1438 1437 1437 1436 1437 1439 1436 1438 1438 1439 1439 1441 1442 1443
1429 1427 1425 1424 1423 1422 1422 1422 1423 1423 1422 1422 1422 1423 1424 1424 1425 1425 1425 1426 1426 1427 1428 1428 1428 1428 1429 1430 1431 1432 1431 1431 1431 1431 1432 1430 1430 1430 1431 1432 1433 1434 1435
1423 1421 1419 1418 1416 1415 1415 1415 1416 1416 1415 1414 1415 1416 1416 1416 1417 1419 1419 1418 1418 1419 1420 1420 1421 1421 1422 1423 1424 1425 1424 1424 1422 1422 1424 1424 1423 1423 1423 1424 1425 1426 1428
1418 1416 1414 1412 1411 1409 1409 1409 1410 1410 1409 1408 1409 1409 1410 1410 1410 1411 1411 1411 1410 1411 1412 1412 1412 1413 1413 1414 1415 1416 1417 1417 1415 1414 1415 1418 1416 1417 1415 1415 1417 1419 1420